Location: Berg
(47.2344°N, 9.5296°E)
Time: 15:14:35
(UTC+00:00)

Cosmos 44 - Pass Details

Date: 17 May 2021
Orbit: 571 x 791 km, 65.1° (Epoch: 11 June)

Event Time Altitude Azimuth Distance (km) Brightness Sun altitude
Rises 20:22:13 0° 322° (NW) 3,295 8.9 -12.4°
Reaches altitude 10° 20:24:41 10° 321° (NW) 2,355 7.5 -12.7°
Maximum altitude 20:30:07 80° 236° (SW) 787 3.5 -13.3°
Enters shadow 20:33:49 20° 151° (SSE) 1,693 4.7 -13.7°
